STARLINK-31920 (59907 NORAD) Tracking and Keplerian Element Data

This shows tracking and keplerian element data for the satellite.

Feedback or suggestion? Click here.




ElementValue
Catalog59907
NameSTARLINK-31920
Epoch Orbit277
Epoch Day159.91667824
Epoch Year2024
RAAN175.808
Inclination43.0031
Eccentricity0.0001794
Argument of Perigee258.3613
Mean Anonmoly21.9625
Mean Motion15.80458149
Decay Rate-0.0110273
L11 59907U 24100Y 24159.91667824 -.01102730 00000+0 -62703-2 0 9996
L22 59907 43.0031 175.8080 0001794 258.3613 21.9625 15.80458149 2777



Live tracking and technical data element details for STARLINK-31920 (NORAD 59907). STARLINK-31920 can be tracked NOW for your location showing map with azimuth and elevation plus other details from your city location.







IsCatalogInMostPopularTable: catalog: 59907, numindb: 10
Update: records affected: 1



GetName: 59907 STARLINK-31920

Hit Count: updated at: Thu, 25 Jul 2024 00:40:34 GMT